Elkins, WV

5:49 AM EDT on July 30, 2016 (GMT -0400)
Elkins-Randolph County

Weather History for KEKN - May, 2014

Change the Weather History Date:

Monday, May 5, 2014

  Actual Average Record
Temperature  
Mean Temperature 45 °F 55 °F  
Max Temperature 57 °F 68 °F 87 °F (1950)
Min Temperature 33 °F 42 °F 26 °F (1976)
Degree Days  
Heating Degree Days 20 10  
Month to date heating degree days 65 53  
Since 1 July heating degree days 5872 5616  
Cooling Degree Days 0 0  
Month to date cooling degree days 0 0  
Year to date cooling degree days 2 3  
Moisture  
Dew Point 35 °F    
Average Humidity 61    
Maximum Humidity 82    
Minimum Humidity 39    
Precipitation  
Precipitation 0.07 in 0.16 in 1.55 in (2016)
Month to date precipitation 0.11 0.74  
Year to date precipitation 11.50 14.83  
Snow  
Snow 0.00 in - - ()
Month to date snowfall 0.0  
Since 1 September snowfall 92.3  
Snow Depth 0.00 in    
Sea Level Pressure  
Sea Level Pressure 30.02 in    
Wind  
Wind Speed 2 mph (NW)    
Max Wind Speed 13 mph    
Max Gust Speed 16 mph    
Visibility 10 miles    
Events Rain    
T = Trace of Precipitation, MM = Missing Value Source: NWS Daily Summary

Daily Weather History Graph

Daily Weather History Graph

Search for Another Location

Airport or City:

Trip Planner

Search our weather history database for the weather conditions in past years. The results will help you decide how hot, cold, wet, or windy it might be!

Date:

Astronomy

May. 05, 2014 Rise Set
Actual Time 6:16 AM EDT 8:15 PM EDT
Civil Twilight 5:47 AM EDT 8:44 PM EDT
Nautical Twilight 5:12 AM EDT 9:20 PM EDT
Astronomical Twilight 4:34 AM EDT 9:58 PM EDT
Moon 11:34 AM EDT (5/5) 12:59 AM EDT (5/5)
Length of Visible Light 14h 57m
Length of Day
13h 58m
Waxing Crescent, 36% of the Moon is Illuminated
May 5
Waxing Crescent
May 6
First Quarter
May 14
Full
May 21
Last Quarter
May 28
New

Hourly Weather History & Observations

Time (EDT) Temp. Windchill Dew Point Humidity Pressure Visibility Wind Dir Wind Speed Gust Speed Precip Events Conditions
12:51 AM 50.0 °F - 27.0 °F 41% 30.04 in 10.0 mi North 6.9 mph - N/A   Clear
1:51 AM 46.9 °F - 28.0 °F 48% 30.05 in 10.0 mi North 10.4 mph - N/A   Clear
2:51 AM 44.1 °F 41.5 °F 28.0 °F 53% 30.04 in 10.0 mi NNW 4.6 mph - N/A   Clear
3:51 AM 37.9 °F - 28.9 °F 70% 30.04 in 10.0 mi Calm Calm - N/A   Scattered Clouds
4:51 AM 35.6 °F - 28.4 °F 75% 30.02 in 10.0 mi Calm Calm - N/A   Clear
5:51 AM 35.1 °F 32.2 °F 30.0 °F 82% 30.07 in 10.0 mi ESE 3.5 mph - N/A   Clear
6:51 AM 34.0 °F - 28.9 °F 82% 30.09 in 10.0 mi Calm Calm - N/A   Clear
7:51 AM 41.0 °F - 30.2 °F 65% 30.07 in 10.0 mi Calm Calm - N/A   Clear
8:51 AM 46.9 °F - 30.0 °F 52% 30.08 in 10.0 mi West 3.5 mph - N/A   Clear
9:51 AM 48.0 °F - 28.9 °F 48% 30.07 in 10.0 mi Calm Calm - N/A   Scattered Clouds
10:51 AM 48.9 °F - 30.0 °F 48% 30.05 in 10.0 mi Calm Calm - N/A   Scattered Clouds
11:51 AM 50.0 °F - 28.9 °F 44% 30.05 in 10.0 mi Calm Calm - N/A   Overcast
12:51 PM 48.0 °F - 41.0 °F 77% 30.04 in 10.0 mi Calm Calm - 0.01 in Rain Light Rain
1:51 PM 48.0 °F - 41.0 °F 77% 30.05 in 10.0 mi South 4.6 mph - 0.02 in Rain Light Rain
2:51 PM 46.9 °F - 39.9 °F 77% 30.02 in 6.0 mi SE 3.5 mph - 0.04 in Rain Light Rain
3:51 PM 52.0 °F - 42.1 °F 69% 29.99 in 10.0 mi Calm Calm - 0.00 in   Overcast
4:51 PM 54.0 °F - 37.9 °F 55% 29.98 in 10.0 mi Calm Calm - N/A   Overcast
5:51 PM 55.9 °F - 37.0 °F 49% 29.96 in 10.0 mi Calm Calm - N/A   Mostly Cloudy
6:51 PM 53.1 °F - 39.9 °F 61% 29.96 in 10.0 mi NNW 5.8 mph - N/A   Overcast
7:51 PM 51.1 °F - 39.9 °F 66% 29.95 in 10.0 mi West 4.6 mph - N/A   Partly Cloudy
8:51 PM 46.9 °F - 39.9 °F 77% 29.95 in 10.0 mi WNW 3.5 mph - N/A   Clear
9:51 PM 46.0 °F - 39.9 °F 79% 29.95 in 10.0 mi Calm Calm - N/A   Mostly Cloudy
10:51 PM 48.0 °F - 41.0 °F 77% 29.94 in 10.0 mi Calm Calm - N/A   Overcast
11:51 PM 48.9 °F - 41.0 °F 74% 29.92 in 10.0 mi Calm Calm - N/A   Overcast